timestamp,surface_pressure_avg,surface_temp_avg,battery_voltage,lat,long
2022-12-29 00:09:00+00:00,231.9181,3.5,12.57,47.84626,-54.09684
2022-12-29 00:19:00+00:00,237.9931,3.5,12.57,47.84626,-54.09684
2022-12-29 00:29:00+00:00,237.1981,3.5,12.57,47.84626,-54.09684
2022-12-29 00:39:00+00:00,233.3031,3.5,12.57,47.84626,-54.09684
2022-12-29 00:49:00+00:00,239.7448,3.5,12.57,47.84626,-54.09684
2022-12-29 00:59:00+00:00,243.5014,3.5,12.57,47.84626,-54.09684
2022-12-29 01:09:00+00:00,242.5214,3.49,12.57,47.84626,-54.09684
2022-12-29 01:19:00+00:00,244.2148,3.4,12.57,47.84626,-54.09684
2022-12-29 01:29:00+00:00,256.5531,3.4,12.57,47.84626,-54.09684
2022-12-29 01:39:00+00:00,263.2381,3.37,12.57,47.84626,-54.09684
2022-12-29 01:49:00+00:00,266.1697,3.29,12.57,47.84626,-54.09684
2022-12-29 01:59:00+00:00,275.1031,3.2,12.57,47.84626,-54.09684
2022-12-29 02:09:00+00:00,285.6897,3.1,12.57,47.84626,-54.09684
2022-12-29 02:19:00+00:00,290.4497,2.9,12.57,47.84626,-54.09684
2022-12-29 02:29:00+00:00,299.788,2.95,12.57,47.84626,-54.09684
2022-12-29 02:39:00+00:00,309.0397,3.4,12.57,47.84626,-54.09684
2022-12-29 02:49:00+00:00,311.043,3.44,12.57,47.84626,-54.09684
2022-12-29 02:59:00+00:00,315.7497,3.5,12.57,47.84626,-54.09684
2022-12-29 03:09:00+00:00,326.7479,3.69,12.57,47.84626,-54.09684
2022-12-29 03:19:00+00:00,331.3780000000001,3.6,12.57,47.84626,-54.09684
2022-12-29 03:29:00+00:00,328.2312,3.53,12.57,47.84626,-54.09684
2022-12-29 03:39:00+00:00,334.908,3.6,12.57,47.84626,-54.09684
2022-12-29 03:49:00+00:00,340.4946,3.7,12.57,47.84626,-54.09684
2022-12-29 03:59:00+00:00,335.358,3.7,12.57,47.84626,-54.09684
2022-12-29 04:09:00+00:00,333.038,3.67,12.57,47.84626,-54.09684
2022-12-29 04:19:00+00:00,342.0563,3.6,12.57,47.84626,-54.09684
2022-12-29 04:29:00+00:00,342.9779,3.6,12.57,47.84626,-54.09684
2022-12-29 04:39:00+00:00,337.8130000000001,3.57,12.57,47.84626,-54.09684
2022-12-29 04:49:00+00:00,336.7496,3.56,12.57,47.84626,-54.09684
2022-12-29 04:59:00+00:00,337.3280000000001,3.52,12.57,47.84626,-54.09684
2022-12-29 05:09:00+00:00,333.0529,3.5,12.57,47.84626,-54.09684
2022-12-29 05:19:00+00:00,333.0663,3.3,12.57,47.84626,-54.09684
2022-12-29 05:29:00+00:00,331.9697,3.4,12.57,47.84626,-54.09684
2022-12-29 05:39:00+00:00,330.163,3.55,12.57,47.84626,-54.09684
2022-12-29 05:49:00+00:00,329.0646,3.4,12.57,47.84626,-54.09684
2022-12-29 05:59:00+00:00,325.9563,3.5,12.57,47.84626,-54.09684
2022-12-29 06:09:00+00:00,315.9097,3.4,12.57,47.84626,-54.09684
2022-12-29 06:19:00+00:00,309.27299999999997,3.48,12.57,47.84626,-54.09684
2022-12-29 06:29:00+00:00,309.2847,3.6,12.57,47.84626,-54.09684
2022-12-29 06:39:00+00:00,300.8796,3.7,12.57,47.84626,-54.09684
2022-12-29 06:49:00+00:00,284.8964,3.6,12.57,47.84626,-54.09684
2022-12-29 06:59:00+00:00,277.793,3.6,12.57,47.84626,-54.09684
2022-12-29 07:09:00+00:00,277.0364,3.67,12.57,47.84626,-54.09684
2022-12-29 07:19:01+00:00,264.8597,3.6,12.49,47.84626,-54.09684
2022-12-29 07:29:01+00:00,249.8198,3.5,12.49,47.84626,-54.09684
2022-12-29 07:39:01+00:00,241.8364,3.52,12.49,47.84626,-54.09684
2022-12-29 07:49:01+00:00,236.438,3.69,12.49,47.84626,-54.09684
2022-12-29 07:59:01+00:00,222.4031,3.7,12.49,47.84626,-54.09684
2022-12-29 08:09:01+00:00,214.5048,3.61,12.49,47.84626,-54.09684
2022-12-29 08:19:01+00:00,214.5665,3.6,12.49,47.84626,-54.09684
2022-12-29 08:29:01+00:00,207.9848,3.6,12.49,47.84626,-54.09684
2022-12-29 08:39:01+00:00,200.9848,3.6,12.49,47.84626,-54.09684
2022-12-29 08:49:01+00:00,199.8314,3.6,12.49,47.84626,-54.09684
2022-12-29 08:59:01+00:00,197.4114,3.6,12.49,47.84626,-54.09684
2022-12-29 09:09:01+00:00,191.3064,3.58,12.49,47.84626,-54.09684
2022-12-29 09:19:01+00:00,191.0065,3.58,12.49,47.84626,-54.09684
2022-12-29 09:29:01+00:00,191.3748,3.59,12.49,47.84626,-54.09684
2022-12-29 09:39:01+00:00,184.6465,3.6,12.49,47.84626,-54.09684
2022-12-29 09:49:01+00:00,187.0081,3.6,12.49,47.84626,-54.09684
2022-12-29 09:59:01+00:00,194.4498,3.6,12.49,47.84626,-54.09684
2022-12-29 10:09:01+00:00,191.3465,3.68,12.49,47.84626,-54.09684
2022-12-29 10:19:00+00:00,190.3348,3.7,12.49,47.84626,-54.09684
2022-12-29 10:29:00+00:00,196.7314,3.7,12.49,47.84626,-54.09684
2022-12-29 10:39:00+00:00,199.2365,3.74,12.49,47.84626,-54.09684
2022-12-29 10:49:00+00:00,197.9514,3.74,12.49,47.84626,-54.09684
2022-12-29 10:59:00+00:00,201.3264,3.79,12.49,47.84626,-54.09684
2022-12-29 11:09:00+00:00,204.6014,3.79,12.49,47.84626,-54.09684
2022-12-29 11:19:00+00:00,205.3264,3.7,12.49,47.84626,-54.09684
2022-12-29 11:29:00+00:00,205.7781,3.6,12.49,47.84626,-54.09684
2022-12-29 11:39:00+00:00,209.3398,3.6,12.49,47.84626,-54.09684
2022-12-29 11:49:00+00:00,215.2931,3.6,12.49,47.84626,-54.09684
2022-12-29 11:59:00+00:00,218.6748,3.6,12.49,47.84626,-54.09684
2022-12-29 12:09:00+00:00,219.4531,3.6,12.49,47.84626,-54.09684
2022-12-29 12:19:00+00:00,223.9098,3.6,12.49,47.84626,-54.09684
2022-12-29 12:29:00+00:00,226.5247,3.6,12.49,47.84626,-54.09684
2022-12-29 12:39:00+00:00,226.2248,3.7,12.49,47.84626,-54.09684
2022-12-29 12:49:00+00:00,230.5331,3.8,12.49,47.84626,-54.09684
2022-12-29 12:59:00+00:00,235.6947,3.8,12.49,47.84626,-54.09684
2022-12-29 13:09:00+00:00,236.1147,3.8,12.49,47.84626,-54.09684
2022-12-29 13:19:01+00:00,240.3948,3.85,12.65,47.84626,-54.09684
2022-12-29 13:29:01+00:00,246.4814,3.8,12.65,47.84626,-54.09684
2022-12-29 13:39:01+00:00,247.208,3.82,12.65,47.84626,-54.09684
2022-12-29 13:49:01+00:00,251.8764,3.87,12.65,47.84626,-54.09684
2022-12-29 13:59:01+00:00,265.2781,3.89,12.65,47.84626,-54.09684
2022-12-29 14:09:01+00:00,274.5331,3.52,12.65,47.84626,-54.09684
2022-12-29 14:19:01+00:00,279.3181,3.88,13.76,47.84626,-54.09684
2022-12-29 14:29:01+00:00,287.5131,3.9,13.76,47.84626,-54.09684
2022-12-29 14:39:01+00:00,297.3531,3.6,13.76,47.84626,-54.09684
2022-12-29 14:49:01+00:00,305.903,3.4,13.76,47.84626,-54.09684
2022-12-29 14:59:01+00:00,313.0947,3.33,13.76,47.84626,-54.09684
2022-12-29 15:09:01+00:00,318.6247,3.21,13.76,47.84626,-54.09684
2022-12-29 15:19:00+00:00,322.4046,3.3,13.68,47.84626,-54.09684
2022-12-29 15:29:00+00:00,327.508,3.46,13.68,47.84626,-54.09684
2022-12-29 15:39:00+00:00,330.9679,3.86,13.68,47.84626,-54.09684
2022-12-29 15:49:00+00:00,338.1280000000001,3.9,13.68,47.84626,-54.09684
2022-12-29 15:59:00+00:00,340.3947,3.89,13.68,47.84626,-54.09684
2022-12-29 16:09:00+00:00,338.8746,3.9,13.68,47.84626,-54.09684
2022-12-29 16:19:01+00:00,342.3963,3.8,13.6,47.84626,-54.09684
2022-12-29 16:29:01+00:00,344.5346,3.6,13.6,47.84626,-54.09684
2022-12-29 16:39:01+00:00,342.4612,3.68,13.6,47.84626,-54.09684
2022-12-29 16:49:01+00:00,342.2496,3.7,13.6,47.84626,-54.09684
2022-12-29 16:59:01+00:00,346.6929,3.7,13.6,47.84626,-54.09684
2022-12-29 17:09:01+00:00,347.3446,3.81,13.6,47.84626,-54.09684
2022-12-29 17:19:00+00:00,340.6146,3.9,12.97,47.84626,-54.09684
2022-12-29 17:29:00+00:00,343.2179,3.8,12.97,47.84626,-54.09684
2022-12-29 17:39:00+00:00,343.7612,3.76,12.97,47.84626,-54.09684
2022-12-29 17:49:00+00:00,337.8063,3.69,12.97,47.84626,-54.09684
2022-12-29 17:59:00+00:00,334.7580000000001,3.7,12.97,47.84626,-54.09684
2022-12-29 18:09:00+00:00,338.4096,3.7,12.97,47.84626,-54.09684
2022-12-29 18:19:01+00:00,335.2679,3.69,13.44,47.84626,-54.09684
2022-12-29 18:29:01+00:00,321.0897,3.67,13.44,47.84626,-54.09684
2022-12-29 18:39:01+00:00,317.4363,3.7,13.44,47.84626,-54.09684
2022-12-29 18:49:01+00:00,318.303,3.7,13.44,47.84626,-54.09684
2022-12-29 18:59:01+00:00,313.5663,3.7,13.44,47.84626,-54.09684
2022-12-29 19:09:01+00:00,303.3363,3.7,13.44,47.84626,-54.09684
2022-12-29 19:19:00+00:00,296.6547,3.7,12.97,47.84626,-54.09684
2022-12-29 19:29:00+00:00,291.033,3.7,12.97,47.84626,-54.09684
2022-12-29 19:39:00+00:00,281.8698,3.7,12.97,47.84626,-54.09684
2022-12-29 19:49:00+00:00,270.9181,3.8,12.97,47.84626,-54.09684
2022-12-29 19:59:00+00:00,264.1748,3.8,12.97,47.84626,-54.09684
2022-12-29 20:09:00+00:00,257.8398,3.8,12.97,47.84626,-54.09684
2022-12-29 20:19:00+00:00,251.9464,3.83,12.65,47.84626,-54.09684
2022-12-29 20:29:00+00:00,244.7448,3.86,12.65,47.84626,-54.09684
2022-12-29 20:39:00+00:00,236.1164,3.85,12.65,47.84626,-54.09684
2022-12-29 20:49:00+00:00,228.6631,3.8,12.65,47.84626,-54.09684
2022-12-29 20:59:00+00:00,223.4647,3.7,12.65,47.84626,-54.09684
2022-12-29 21:09:00+00:00,216.6981,3.59,12.65,47.84626,-54.09684
2022-12-29 21:19:00+00:00,211.8014,3.5,12.65,47.84626,-54.09684
2022-12-29 21:29:00+00:00,213.5581,3.44,12.65,47.84626,-54.09684
2022-12-29 21:39:00+00:00,214.7231,3.4,12.65,47.84626,-54.09684
2022-12-29 21:49:00+00:00,213.1214,3.3,12.65,47.84626,-54.09684
2022-12-29 21:59:00+00:00,212.5847,3.3,12.65,47.84626,-54.09684
2022-12-29 22:09:00+00:00,214.2915,3.3,12.65,47.84626,-54.09684
2022-12-29 22:19:00+00:00,219.5781,3.29,12.65,47.84626,-54.09684
2022-12-29 22:29:00+00:00,221.3581,3.2,12.65,47.84626,-54.09684
2022-12-29 22:39:00+00:00,224.0981,3.2,12.65,47.84626,-54.09684
2022-12-29 22:49:00+00:00,230.558,3.2,12.65,47.84626,-54.09684
2022-12-29 22:59:00+00:00,229.9915,3.27,12.65,47.84626,-54.09684
2022-12-29 23:09:00+00:00,225.4581,3.29,12.65,47.84626,-54.09684
2022-12-29 23:19:00+00:00,228.7864,3.43,12.57,47.84626,-54.09684
2022-12-29 23:29:00+00:00,234.4931,3.63,12.57,47.84626,-54.09684
2022-12-29 23:39:00+00:00,229.4547,3.7,12.57,47.84626,-54.09684
2022-12-29 23:49:00+00:00,228.1531,3.7,12.57,47.84626,-54.09684
2022-12-29 23:59:00+00:00,237.3414,3.8,12.57,47.84626,-54.09684
